DW5082 Tarrytown NY US current weather conditions

sailwx.info

Wind from 021 at 0 knots gusting 2

Air temperature -1.1° C
Dewpoint -8.8° C

Last reported at 2019-Dec-12 18:02 UTC.
Time now 2019-Dec-12 18:22 UTC

Location: N 41°03' W 073°51'.
View on Google Maps.

See reports from other nearby stations

  
Tides and Currents Weather Stations Pressure Air Temp Water Temp Dewpoint Dewpoint Depression Visibility Wind Speed Wind Dir Waves Ship Positions
date/time (UTC)wind fromknots sea level pressurealtimeterstation pressurevisibilityair tempwater tempwave heightnotes
2019-Dec-12 18:02 021 0 gusting 2 -1.1
2019-Dec-12 17:47 277 1 gusting 4 -1.7
2019-Dec-12 17:42 340 1 gusting 4 -1.7
2019-Dec-12 17:37 286 0 gusting 4 -1.7
2019-Dec-12 17:32 307 1 gusting 4 -1.1
2019-Dec-12 17:17 333 0 gusting 2 -1.7
2019-Dec-12 17:12 279 0 gusting 2 -1.1
2019-Dec-12 17:07 017 0 gusting 1 -1.7
2019-Dec-12 17:02 334 1 gusting 5 -1.7
2019-Dec-12 16:47 272 0 gusting 2 -2.2
2019-Dec-12 16:42 293 1 gusting 6 -2.2
2019-Dec-12 16:37 298 -2.2
2019-Dec-12 16:32 326 0 gusting 6 -2.2
2019-Dec-12 16:17 015 -2.2
2019-Dec-12 16:12 040 0 gusting 2 -2.2
2019-Dec-12 16:07 242 0 gusting 5 -2.2
2019-Dec-12 16:02 347 -2.2
2019-Dec-12 15:47 350 0 gusting 2 -2.2
2019-Dec-12 15:42 303 1 gusting 5 -2.2
2019-Dec-12 15:37 327 0 gusting 5 -2.2
2019-Dec-12 15:32 345 1 gusting 5 -2.2
2019-Dec-12 15:17 285 0 gusting 1 -2.8
2019-Dec-12 15:12 030 0 gusting 2 -2.8
2019-Dec-12 15:07 006 1 gusting 4 -2.8
2019-Dec-12 15:02 310 -3.3
2019-Dec-12 14:47 233 -3.3
2019-Dec-12 14:42 281 -3.3
2019-Dec-12 14:37 359 -3.3
2019-Dec-12 14:32 076 0 gusting 4 -3.3
2019-Dec-12 14:17 312 2 gusting 6 -3.9
2019-Dec-12 14:12 066 -3.9
2019-Dec-12 14:07 016 0 gusting 4 -3.9
2019-Dec-12 14:02 280 0 gusting 6 -4.4
2019-Dec-12 13:47 043 0 gusting 2 -4.4
2019-Dec-12 13:42 324 -4.4
2019-Dec-12 13:37 342 -5.0
2019-Dec-12 13:32 001 -5.0
2019-Dec-12 13:17 018 -5.0
2019-Dec-12 13:12 347 -5.0
2019-Dec-12 13:07 093 0 gusting 2 -5.0
2019-Dec-12 13:02 070 -5.0
2019-Dec-12 12:47 259 -5.0
2019-Dec-12 12:42 292 0 gusting 2 -5.0
2019-Dec-12 12:37 347 -5.0
2019-Dec-12 12:32 297 -5.0
2019-Dec-12 12:17 276 0 gusting 4 -5.0
2019-Dec-12 12:12 125 -5.0
2019-Dec-12 12:07 215 0 gusting 4 -5.0
2019-Dec-12 12:02 303 0 gusting 4 -5.0
2019-Dec-12 11:47 128 0 gusting 2 -5.0
2019-Dec-12 11:42 153 -5.0
2019-Dec-12 11:37 184 -5.0
2019-Dec-12 11:32 125 0 gusting 7 -5.0
2019-Dec-12 11:17 235 0 gusting 5 -5.0
2019-Dec-12 11:12 166 -5.0
2019-Dec-12 11:07 166 0 gusting 5 -5.0
2019-Dec-12 11:02 217 -5.0
2019-Dec-12 10:47 241 0 gusting 2 -4.4
2019-Dec-12 10:42 291 0 gusting 2 -4.4
2019-Dec-12 10:37 265 1 gusting 2 -4.4
2019-Dec-12 10:32 220 0 gusting 5 -4.4
2019-Dec-12 10:17 246 -4.4
2019-Dec-12 10:12 284 0 gusting 2 -4.4
2019-Dec-12 10:07 301 0 gusting 2 -4.4
2019-Dec-12 10:02 119 0 gusting 4 -4.4
2019-Dec-12 09:47 051 0 gusting 6 -4.4
2019-Dec-12 09:42 346 2 gusting 6 -3.9
2019-Dec-12 09:37 043 2 gusting 8 -4.4
2019-Dec-12 09:32 356 1 gusting 6 -4.4
2019-Dec-12 09:17 033 1 gusting 7 -3.9
2019-Dec-12 09:12 051 0 gusting 6 -3.9
2019-Dec-12 09:07 318 1 gusting 7 -3.9
2019-Dec-12 09:02 005 0 gusting 6 -3.9
2019-Dec-12 08:47 040 1 gusting 7 -3.9
2019-Dec-12 08:42 034 1 gusting 2 -3.9
2019-Dec-12 08:37 051 0 gusting 2 -3.9
2019-Dec-12 08:32 044 1 gusting 8 -3.3
2019-Dec-12 08:17 027 0 gusting 6 -3.3
2019-Dec-12 08:12 119 1 gusting 7 -3.3
2019-Dec-12 08:07 085 1 gusting 6 -3.3
2019-Dec-12 08:02 354 1 gusting 13 -3.3
2019-Dec-12 07:47 008 2 gusting 10 -3.3
2019-Dec-12 07:42 025 1 gusting 13 -2.8
2019-Dec-12 07:37 018 4 gusting 10 -2.8
2019-Dec-12 07:32 066 -2.8
2019-Dec-12 07:07 246 0 gusting 2 -2.8
2019-Dec-12 07:02 345 1 gusting 7 -2.8
2019-Dec-12 06:47 343 1 gusting 6 -2.8
2019-Dec-12 06:42 023 1 gusting 7 -2.8
2019-Dec-12 06:37 009 1 gusting 7 -2.2
2019-Dec-12 06:32 005 2 gusting 7 -2.2
2019-Dec-12 06:17 353 1 gusting 4 -2.2
2019-Dec-12 06:12 054 1 gusting 4 -2.2
2019-Dec-12 06:07 308 0 gusting 8 -2.2
2019-Dec-12 06:02 300 0 gusting 5 -2.2
2019-Dec-12 05:47 216 0 gusting 6 -2.2
2019-Dec-12 05:42 200 0 gusting 5 -2.2
2019-Dec-12 05:37 206 1 gusting 6 -2.2
2019-Dec-12 05:32 234 4 gusting 7 -2.2
2019-Dec-12 05:17 037 2 gusting 6 -1.7
2019-Dec-12 05:12 263 2 gusting 7 -1.7
2019-Dec-12 05:07 211 1 gusting 6 -1.7
2019-Dec-12 05:02 015 -1.7
2019-Dec-12 04:47 190 -1.7
2019-Dec-12 04:42 281 1 gusting 6 -1.7
2019-Dec-12 04:37 120 0 gusting 6 -1.7
2019-Dec-12 04:32 205 1 gusting 10 -1.7
2019-Dec-12 04:17 191 0 gusting 6 -1.7
2019-Dec-12 04:12 292 1 gusting 5 -1.7
2019-Dec-12 04:07 355 2 gusting 6 -1.7
2019-Dec-12 04:02 306 2 gusting 10 -1.7
2019-Dec-12 03:47 160 1 gusting 10 -1.7
2019-Dec-12 03:42 139 2 gusting 10 -1.7
2019-Dec-12 03:37 135 1 gusting 5 -1.7
2019-Dec-12 03:32 255 1 gusting 7 -1.7
2019-Dec-12 03:17 233 0 gusting 6 -1.7
2019-Dec-12 03:12 206 2 gusting 6 -1.7
2019-Dec-12 03:07 197 1 gusting 5 -1.1
2019-Dec-12 03:02 183 1 gusting 6 -1.1
2019-Dec-12 02:47 240 2 gusting 7 -1.1
2019-Dec-12 02:42 200 0 gusting 8 -1.1
2019-Dec-12 02:37 244 4 gusting 11 -1.1
2019-Dec-12 02:32 217 3 gusting 10 -1.1
2019-Dec-12 02:17 218 5 gusting 11 -1.1
2019-Dec-12 02:12 233 5 gusting 11 -1.1
2019-Dec-12 02:07 219 3 gusting 8 -1.1
2019-Dec-12 02:02 246 4 gusting 13 -1.1
2019-Dec-12 01:47 244 2 gusting 13 -0.6
2019-Dec-12 01:42 230 2 gusting 11 -0.6
2019-Dec-12 01:37 221 3 gusting 11 -0.6
2019-Dec-12 01:32 242 4 gusting 17 -0.6
2019-Dec-12 01:17 230 3 gusting 7 -0.6
2019-Dec-12 01:12 256 4 gusting 11 -0.6
2019-Dec-12 01:07 233 5 gusting 15 -0.6
2019-Dec-12 01:02 223 4 gusting 12 -0.6
2019-Dec-12 00:47 221 2 gusting 10 -0.6
2019-Dec-12 00:42 215 5 gusting 13 -0.6
2019-Dec-12 00:37 199 1 gusting 7 -0.6
2019-Dec-12 00:32 213 3 gusting 13 -0.0
2019-Dec-12 00:17 236 1 gusting 5 -0.0
2019-Dec-12 00:12 232 1 gusting 6 -0.0
2019-Dec-12 00:07 227 1 gusting 10 -0.0
2019-Dec-12 00:02 210 1 gusting 8 -0.0
2019-Dec-11 23:47 202 3 gusting 13 -0.0
2019-Dec-11 23:42 241 1 gusting 7 -0.0
2019-Dec-11 23:37 227 1 gusting 6 -0.0
2019-Dec-11 23:32 169 1 gusting 10 -0.0
2019-Dec-11 23:17 259 4 gusting 10 0.6
2019-Dec-11 23:12 246 3 gusting 8 0.6
2019-Dec-11 23:07 236 2 gusting 14 0.6
2019-Dec-11 23:02 195 6 gusting 10 -0.0
2019-Dec-11 22:47 194 0 gusting 5 -0.0
2019-Dec-11 22:42 210 2 gusting 6 -0.0
2019-Dec-11 22:37 207 1 gusting 7 -0.0
2019-Dec-11 22:32 191 1 gusting 11 -0.0
2019-Dec-11 22:17 217 3 gusting 7 -0.0
2019-Dec-11 22:12 202 2 gusting 10 0.6
2019-Dec-11 22:07 200 4 gusting 8 -0.0
2019-Dec-11 22:02 183 4 gusting 10 -0.0
2019-Dec-11 21:47 180 0 gusting 6 -0.0
2019-Dec-11 21:42 203 0 gusting 5 -0.0
2019-Dec-11 21:37 214 0 gusting 2 0.6
2019-Dec-11 21:32 206 0 gusting 7 0.6
2019-Dec-11 21:17 229 2 gusting 6 0.6
2019-Dec-11 21:12 223 2 gusting 6 0.6
2019-Dec-11 21:07 212 0 gusting 6 0.6
2019-Dec-11 21:02 187 0 gusting 5 0.6
2019-Dec-11 20:47 239 0 gusting 6 1.1
2019-Dec-11 20:42 250 1 gusting 4 1.1
2019-Dec-11 20:37 226 1 gusting 6 1.1
2019-Dec-11 20:32 243 1 gusting 5 1.1
2019-Dec-11 20:17 213 1 gusting 6 1.7
2019-Dec-11 20:12 215 0 gusting 2 1.7
2019-Dec-11 20:07 242 0 gusting 2 1.7
2019-Dec-11 20:02 215 1.7
2019-Dec-11 19:47 173 0.6
2019-Dec-11 19:42 192 0.6
2019-Dec-11 19:37 190 0.6
2019-Dec-11 19:32 171 0 gusting 2 0.6
2019-Dec-11 19:17 223 0 gusting 2 0.6
2019-Dec-11 19:12 230 0 gusting 2 0.6
2019-Dec-11 19:07 218 0 gusting 5 1.1
2019-Dec-11 19:02 226 0 gusting 1 1.1
2019-Dec-11 18:47 246 0.6
2019-Dec-11 18:42 159 1.1
2019-Dec-11 18:37 195 0 gusting 1 0.6
2019-Dec-11 18:32 227 0.6
2019-Dec-11 18:17 231 0 gusting 1 0.6
2019-Dec-11 18:12 254 1.1
2019-Dec-11 18:07 254 0.6
2019-Dec-11 18:02 264 0.6
2019-Dec-11 17:47 162 1.1
2019-Dec-11 17:42 207 0.6
2019-Dec-11 17:37 149 0.6
2019-Dec-11 17:32 200 0.6
2019-Dec-11 17:17 160 0.6
2019-Dec-11 17:12 213 0.6
2019-Dec-11 17:07 200 0.6
2019-Dec-11 17:02 200 0.6
2019-Dec-11 16:47 224 0.6
2019-Dec-11 16:42 236 0.6
2019-Dec-11 16:37 265 0.6
2019-Dec-11 16:32 265 0.6
2019-Dec-11 16:17 267 -0.0
2019-Dec-11 16:12 248 -0.0
2019-Dec-11 16:07 304 -0.0
2019-Dec-11 16:02 296 -0.0
2019-Dec-11 15:47 010 -0.6
2019-Dec-11 15:42 008 -0.6
2019-Dec-11 15:37 005 -0.6
2019-Dec-11 15:32 032 -0.6
2019-Dec-11 15:17 018 -0.6
2019-Dec-11 15:12 358 -0.6
2019-Dec-11 15:07 283 -0.6
2019-Dec-11 15:02 317 -0.6
2019-Dec-11 14:47 009 -1.1
2019-Dec-11 14:42 027 -1.1
2019-Dec-11 14:37 028 -1.1
2019-Dec-11 14:32 027 -1.1
2019-Dec-11 14:17 263 -1.1
2019-Dec-11 14:12 263 -1.1
2019-Dec-11 14:07 263 -1.1
2019-Dec-11 14:02 263 -1.1
2019-Dec-11 13:47 249 -1.1
2019-Dec-11 13:42 231 -1.1
2019-Dec-11 13:37 282 -1.1
2019-Dec-11 13:32 270 -1.1
2019-Dec-11 13:17 022 -1.1
2019-Dec-11 13:12 006 -1.1
2019-Dec-11 13:07 006 -1.1
2019-Dec-11 13:02 006 -1.1
2019-Dec-11 12:47 328 -1.1
2019-Dec-11 12:42 354 -1.1
2019-Dec-11 12:37 354 -1.1
2019-Dec-11 12:32 354 -1.1
2019-Dec-11 12:17 330 -1.1
2019-Dec-11 12:12 330 -1.1
2019-Dec-11 12:07 323 -1.1
2019-Dec-11 12:02 322 -1.1
2019-Dec-11 11:47 335 -1.1
2019-Dec-11 11:42 349 -1.1
2019-Dec-11 11:37 330 -1.1
2019-Dec-11 11:32 320 -1.1
2019-Dec-11 11:17 111 -1.1
2019-Dec-11 11:12 316 -1.1
2019-Dec-11 11:07 303 -1.1
2019-Dec-11 11:02 328 -1.1
2019-Dec-11 10:47 003 0 gusting 2 -0.6
2019-Dec-11 10:42 345 -0.6
2019-Dec-11 10:37 317 -0.6
2019-Dec-11 10:32 343 -0.6
2019-Dec-11 10:17 011 -0.6
2019-Dec-11 10:12 316 -0.6
2019-Dec-11 10:07 334 -0.6
2019-Dec-11 10:02 321 -0.6
2019-Dec-11 09:47 306 0 gusting 2 -0.0
2019-Dec-11 09:42 315 -0.0
2019-Dec-11 09:37 228 -0.0
2019-Dec-11 09:32 071 -0.0
2019-Dec-11 09:17 328 -0.0
2019-Dec-11 09:12 337 -0.0
2019-Dec-11 09:07 351 -0.0
2019-Dec-11 09:02 044 -0.0
2019-Dec-11 08:47 342 -0.0
2019-Dec-11 08:42 340 -0.0
2019-Dec-11 08:37 326 -0.0
2019-Dec-11 08:32 306 -0.0
2019-Dec-11 08:17 037 -0.0
2019-Dec-11 08:12 288 0.6
2019-Dec-11 08:07 348 0 gusting 2 0.6
2019-Dec-11 08:02 303 0.6
2019-Dec-11 07:47 305 0.6
2019-Dec-11 07:42 276 0.6
2019-Dec-11 07:37 031 0.6
2019-Dec-11 07:32 101 0.6
2019-Dec-11 07:17 042 1.1
2019-Dec-11 07:12 278 1.1
2019-Dec-11 07:07 289 1.1
2019-Dec-11 07:02 031 1.1
2019-Dec-11 06:47 049 1 gusting 4 1.1
2019-Dec-11 06:42 294 0 gusting 2 1.1
2019-Dec-11 06:37 357 0 gusting 1 1.1
2019-Dec-11 06:32 341 0 gusting 2 1.1
2019-Dec-11 06:17 025 1 gusting 4 1.7
2019-Dec-11 06:12 351 2.2
2019-Dec-11 06:07 058 2.2
2019-Dec-11 06:02 078 0 gusting 6 2.2
2019-Dec-11 05:47 027 0 gusting 2 2.8
2019-Dec-11 05:42 295 2.8
2019-Dec-11 05:37 336 1 gusting 4 2.8
2019-Dec-11 05:32 2.8
2019-Dec-11 05:17 108 0 gusting 8 2.8
2019-Dec-11 05:12 307 1 gusting 5 2.8
2019-Dec-11 05:07 018 2 gusting 6 2.8
2019-Dec-11 05:02 294 2 gusting 6 2.8
2019-Dec-11 04:47 065 1 gusting 4 3.3
2019-Dec-11 04:42 133 0 gusting 5 3.3
2019-Dec-11 04:37 356 1 gusting 6 3.3
2019-Dec-11 04:32 049 1 gusting 6 3.3
2019-Dec-11 04:17 216 0 gusting 4 3.9
2019-Dec-11 04:12 356 0 gusting 8 3.9
2019-Dec-11 04:07 174 0 gusting 7 4.4
2019-Dec-11 04:02 045 1 gusting 8 4.4
2019-Dec-11 03:47 178 0 gusting 2 5.0
2019-Dec-11 03:42 148 2 gusting 6 5.6
2019-Dec-11 03:37 233 0 gusting 6 5.6
2019-Dec-11 03:32 289 0 gusting 10 5.6
2019-Dec-11 03:17 255 1 gusting 7 6.1
2019-Dec-11 03:12 143 1 gusting 6 6.1
2019-Dec-11 03:07 255 4 gusting 10 6.1
2019-Dec-11 03:02 190 1 gusting 10 6.1
2019-Dec-11 02:47 220 3 gusting 7 6.1
2019-Dec-11 02:42 228 2 gusting 5 6.1
2019-Dec-11 02:37 218 0 gusting 10 6.1
2019-Dec-11 02:32 220 0 gusting 10 6.1
2019-Dec-11 02:17 055 1 gusting 10 6.7
2019-Dec-11 02:12 097 1 gusting 8 6.7
2019-Dec-11 02:07 216 6 gusting 13 6.7
2019-Dec-11 02:02 182 3 gusting 15 6.7
2019-Dec-11 01:47 240 4 gusting 10 7.2
2019-Dec-11 01:42 207 1 gusting 6 7.2
2019-Dec-11 01:37 181 2 gusting 14 7.8
2019-Dec-11 01:32 179 2 gusting 11 7.8
2019-Dec-11 01:17 243 1 gusting 7 7.8
2019-Dec-11 01:12 172 7.8
2019-Dec-11 01:07 077 7.8
2019-Dec-11 01:02 077 7.8
2019-Dec-11 00:47 311 8.3
2019-Dec-11 00:42 318 0 gusting 2 8.3
2019-Dec-11 00:37 055 0 gusting 4 8.3
2019-Dec-11 00:32 302 0 gusting 5 8.3
2019-Dec-11 00:17 038 0 gusting 1 8.9
2019-Dec-11 00:12 8.9
2019-Dec-11 00:07 015 1 gusting 2 9.4
2019-Dec-11 00:02 315 0 gusting 10 9.4
2019-Dec-10 23:47 180 1 gusting 11 10.6
2019-Dec-10 23:42 200 4 gusting 10 10.6
2019-Dec-10 23:37 247 1 gusting 7 10.6
2019-Dec-10 23:32 228 1 gusting 12 10.6
2019-Dec-10 23:17 256 4 gusting 11 10.6
2019-Dec-10 23:12 219 4 gusting 8 11.1
2019-Dec-10 23:07 255 4 gusting 12 11.1
2019-Dec-10 23:02 221 2 gusting 10 11.1
2019-Dec-10 22:47 257 0 gusting 6 11.1
2019-Dec-10 22:42 238 0 gusting 6 11.1
2019-Dec-10 22:37 156 1 gusting 6 11.1
2019-Dec-10 22:32 208 2 gusting 4 11.1
2019-Dec-10 22:17 235 11.1
2019-Dec-10 22:12 233 11.1
2019-Dec-10 22:07 211 0 gusting 5 11.1
2019-Dec-10 22:02 216 0 gusting 6 11.1
2019-Dec-10 21:47 200 1 gusting 4 11.7
2019-Dec-10 21:42 200 2 gusting 7 11.7
2019-Dec-10 21:37 198 3 gusting 7 11.7
2019-Dec-10 21:32 211 2 gusting 6 11.7
2019-Dec-10 21:17 214 2 gusting 6 11.7
2019-Dec-10 21:12 200 2 gusting 6 11.7
2019-Dec-10 21:07 198 1 gusting 6 11.7
2019-Dec-10 21:02 199 0 gusting 2 11.7
2019-Dec-10 20:47 184 1 gusting 2 11.7
2019-Dec-10 20:42 180 0 gusting 2 11.7
2019-Dec-10 20:37 204 0 gusting 2 11.7
2019-Dec-10 20:32 199 0 gusting 4 11.7
2019-Dec-10 20:17 181 1 gusting 4 11.7
2019-Dec-10 20:12 233 0 gusting 6 11.7
2019-Dec-10 20:07 238 1 gusting 5 11.7
2019-Dec-10 20:02 212 1 gusting 6 11.7
2019-Dec-10 19:47 162 1 gusting 5 11.7
2019-Dec-10 19:42 187 1 gusting 5 11.7
2019-Dec-10 19:37 216 0 gusting 6 11.7
2019-Dec-10 19:32 222 1 gusting 6 11.7
2019-Dec-10 19:17 184 2 gusting 6 11.7
2019-Dec-10 19:12 199 2 gusting 6 11.7
2019-Dec-10 19:07 204 1 gusting 6 11.7
2019-Dec-10 19:02 204 3 gusting 10 11.7
2019-Dec-10 18:47 201 3 gusting 6 11.7
2019-Dec-10 18:42 224 3 gusting 7 12.2
2019-Dec-10 18:37 212 1 gusting 7 12.2
2019-Dec-10 18:32 215 3 gusting 6 12.2
2019-Dec-10 18:17 195 1 gusting 7 12.2
2019-Dec-10 18:12 204 2 gusting 6 12.2
2019-Dec-10 18:07 203 0 gusting 2 12.2
2019-Dec-10 18:02 151 0 gusting 6 12.2